Location: Frydek-Mistek
(49.6830°N, 18.3330°E)
Time: 20:57:39
(UTC+02:00)

Courier 1B Rocket - All Passes

Search period start: 27 August 2014 00:00
Search period end: 06 September 2014 00:00
Orbit: 921 x 1202 km, 28.2° (Epoch: 25 August)

Date Brightness Start Highest point End Pass type
(mag) Time Alt. Az. Time Alt. Az. Time Alt. Az.
31 Aug - 03:33:20 10° S 03:34:35 11° S 03:35:48 10° S visible
01 Sep - 02:32:46 10° S 02:34:03 11° S 02:35:19 10° SSE visible
02 Sep - 03:23:58 10° SSW 03:25:30 11° S 03:27:01 10° S visible
03 Sep - 02:22:45 10° SSW 02:24:58 12° S 02:27:08 10° SSE visible
04 Sep - 01:22:05 10° SSW 01:24:23 12° S 01:26:39 10° SSE night (unlit)
04 Sep - 03:15:32 10° SSW 03:16:24 10° S 03:17:15 10° S visible
05 Sep - 00:22:01 10° S 00:23:47 11° S 00:25:33 10° SSE night (unlit)
05 Sep - 02:13:28 10° SSW 02:15:51 12° S 02:18:12 10° SSE night (unlit)
